Погода в Реболах

Россия / Республика Карелия     63°49′46″N   30°48′45″E
темп.,
°C
ветер,
м/с
пор.,
м/с
влажн.,
%
обл.,
%
осадки,
мм/ч
давл.,
гПа
погр.,
м
9 марта, вт
вт900:00−23всв129811 0.0 102020
03:00−25всв12975 0.0 102220
06:00−26всв12980 0.0 102319
09:00−24всв12950 0.0 102558
12:00−18всв12810 0.0 1025287
15:00−15св12750 0.0 1026421
18:00−18ссв11870 0.0 102720
21:00−22сз11890 0.0 102820
10 марта, ср
ср1000:00−22зсз12880 0.0 102920
03:00−22зсз128710 0.0 103020
06:00−22зсз228451 0.0 103020
09:00−21зсз228639 0.0 103174
12:00−14з24780 0.0 1030245
15:00−11зюз35770 0.0 1030401
18:00−14юз23890 0.0 102960
21:00−18юз33860 0.0 102959
11 марта, чт
чт1100:00−19юз38910 0.0 1028142
03:00−19юз310900 0.0 1027195
06:00−19ююз411910 0.0 1026240
09:00−17ююз515790 0.0 1024430
12:00−11ююз613690 0.0 1021699
15:00−8ююз613690 0.0 1018795
18:00−10ююз5128448 0.0 1015639
21:00−11ююз6149374 0.1 1013606
12 марта, пт
пт1200:00−11ююз61593100 0.1 1012567
03:00−10ююз61493100 0.3 1010557
06:00−11ю51393100 0.1 1008553
09:00−10ю61492100 0.2 1006635
12:00−7ю61388100 0.1 1004695
15:00−6ю71288100 0.2 1003769
18:00−7ю71389100 0.1 1001809
21:00−8ю61492100 0.3 1000770
13 марта, сб
сб1300:00−7ю6139399 0.3 999743
03:00−7ю5139399 0.7 997672
06:00−7ю5139499 0.3 996561
09:00−4ю6139199 0.4 995689
12:00−2ю6129299 0.1 995891
15:000ююз7139899 0.9 994953
18:000ююз71297100 0.6 9941002
21:000ююз61397100 1.6 995832